Location: Buckland
(65.9785°N, 161.1281°W)
Time: 07:40:07
(UTC+00:00)

Transit 2A Rocket - Pass Details

Date: 02 December 2020
Orbit: 592 x 910 km, 66.7° (Epoch: 21 January)

Event Time Altitude Azimuth Distance (km) Brightness Sun altitude
Exits shadow 16:34:51 41° 280° (W) 1,103 5.3 -20.0°
Maximum altitude 16:36:45 83° 5° (N) 763 4.9 -19.8°
Drops below altitude 10° 16:41:43 10° 94° (E) 2,170 8.6 -19.3°
Sets 16:43:57 0° 95° (E) 3,040 9.7 -19.1°
